#�ϑ�����,���ϕ���,���ϕ���,�ő啗��,�ő啗����������,�ő�u�ԕ���,�ő�u�ԕ�����������
#(�N����),(m/s)   ,(16����),(m/s)   ,(16����)        ,(m/s)       ,(16����)            
2017/3/7 0:01,0.8,10,0.9,13,0.3,3
2017/3/7 0:02,0.7,9,0.8,13,1.5,16
2017/3/7 0:03,0.6,9,0.7,13,1.1,16
2017/3/7 0:04,0.4,9,0.6,13,0.4,14
2017/3/7 0:05,0.3,16,0.4,12,0.6,1
2017/3/7 0:06,0.3,1,0.3,12,0.4,15
2017/3/7 0:07,0.3,16,0.3,12,1.5,14
2017/3/7 0:08,0.4,16,0.4,11,1.5,15
2017/3/7 0:09,0.5,16,0.5,11,1.5,14
2017/3/7 0:10,0.6,15,0.6,10,1.9,14
2017/3/7 0:11,0.7,15,0.7,10,1.6,14
2017/3/7 0:12,0.7,14,0.7,9,0.6,13
2017/3/7 0:13,0.7,14,0.7,15,0.9,10
2017/3/7 0:14,0.7,13,0.7,15,1,11
2017/3/7 0:15,0.8,13,0.8,13,1.3,9
2017/3/7 0:16,0.9,12,0.9,13,1.6,9
2017/3/7 0:17,0.9,12,0.9,13,1.4,9
2017/3/7 0:18,0.9,11,0.9,13,1.6,9
2017/3/7 0:19,0.8,11,0.9,13,1.1,10
2017/3/7 0:20,0.7,10,0.8,13,1,9
2017/3/7 0:21,0.7,10,0.7,13,1.3,8
2017/3/7 0:22,0.7,9,0.7,13,0.4,5
2017/3/7 0:23,0.7,9,0.7,13,1.3,8
2017/3/7 0:24,0.7,9,0.7,13,1.4,12
2017/3/7 0:25,0.7,9,0.7,13,1.6,12
2017/3/7 0:26,0.7,8,0.7,12,0.8,5
2017/3/7 0:27,0.6,8,0.7,12,1,4
2017/3/7 0:28,0.6,7,0.6,11,1.4,5
2017/3/7 0:29,0.6,7,0.6,11,1.4,4
2017/3/7 0:30,0.7,6,0.7,10,2.4,1
2017/3/7 0:31,0.8,5,0.8,6,2,3
2017/3/7 0:32,1,5,1,5,2.1,3
2017/3/7 0:33,1.1,4,1.1,5,2,4
2017/3/7 0:34,1.2,4,1.2,4,2.2,4
2017/3/7 0:35,1.2,4,1.2,4,2,5
2017/3/7 0:36,1.3,4,1.3,4,1.9,5
2017/3/7 0:37,1.4,4,1.4,4,2,5
2017/3/7 0:38,1.4,4,1.4,4,2,6
2017/3/7 0:39,1.4,4,1.4,4,1.9,3
2017/3/7 0:40,1.3,4,1.4,4,1.3,5
2017/3/7 0:41,1.2,4,1.3,4,1,2
2017/3/7 0:42,1,4,1.2,4,0.6,1
2017/3/7 0:43,0.9,4,1,4,0.6,15
2017/3/7 0:44,0.9,4,0.9,4,1.6,1
2017/3/7 0:45,0.9,3,0.9,4,1.4,1
2017/3/7 0:46,0.8,3,0.9,4,0.9,2
2017/3/7 0:47,0.8,2,0.8,4,2.7,16
2017/3/7 0:48,0.8,2,0.8,4,2.6,16
2017/3/7 0:49,0.9,1,0.9,4,3,2
2017/3/7 0:50,1,1,1,4,2.5,2
2017/3/7 0:51,1.1,1,1.1,4,2.4,2
2017/3/7 0:52,1.2,1,1.2,1,1.8,2
2017/3/7 0:53,1.3,1,1.3,1,0.9,2
2017/3/7 0:54,1.2,1,1.3,1,0.9,15
2017/3/7 0:55,1.2,1,1.2,1,1.6,16
2017/3/7 0:56,1.3,1,1.3,1,1.6,1
2017/3/7 0:57,1.3,1,1.3,1,1.8,1
2017/3/7 0:58,1.2,1,1.3,1,1.5,2
2017/3/7 0:59,1.1,1,1.2,1,0.8,3
2017/3/7 1:00,0.9,1,1,1,0.9,2
2017/3/7 1:01,0.9,1,0.9,1,1.8,16
2017/3/7 1:02,0.9,16,0.9,1,1.6,16
2017/3/7 1:03,1,16,1,1,1.6,16
2017/3/7 1:04,1,16,1,1,1.4,16
2017/3/7 1:05,1,16,1,1,1.4,16
2017/3/7 1:06,1,16,1,1,1.5,16
2017/3/7 1:07,1,16,1,1,1,1
2017/3/7 1:08,0.9,16,0.9,1,1.4,1
2017/3/7 1:09,1,16,1,1,1.4,1
2017/3/7 1:10,1,16,1,16,1.8,1
2017/3/7 1:11,1,16,1.1,1,1.5,1
2017/3/7 1:12,0.9,1,1,1,0.6,1
2017/3/7 1:13,0.8,16,0.9,1,0.9,16
2017/3/7 1:14,0.7,16,0.8,1,0.3,16
2017/3/7 1:15,0.6,1,0.7,1,0.4,14
2017/3/7 1:16,0.6,1,0.6,1,1,15
2017/3/7 1:17,0.6,1,0.6,1,1,16
2017/3/7 1:18,0.6,1,0.6,1,1.1,1
2017/3/7 1:19,0.5,16,0.6,1,0.9,16
2017/3/7 1:20,0.4,16,0.5,1,0.8,2
2017/3/7 1:21,0.5,16,0.5,16,1.8,16
2017/3/7 1:22,0.6,16,0.6,1,2.1,15
2017/3/7 1:23,0.7,16,0.7,1,1.9,1
2017/3/7 1:24,0.9,16,0.9,16,2.2,1
2017/3/7 1:25,1,16,1,16,1.9,1
2017/3/7 1:26,1,16,1,16,1.4,2
2017/3/7 1:27,1,1,1.1,16,1,2
2017/3/7 1:28,1,16,1,16,1.1,1
2017/3/7 1:29,1.1,1,1.1,16,1.6,16
2017/3/7 1:30,1.1,1,1.1,16,1.5,16
2017/3/7 1:31,1.1,1,1.1,16,1.5,16
2017/3/7 1:32,1.1,1,1.1,16,1.1,16
2017/3/7 1:33,1,1,1.1,16,1.3,16
2017/3/7 1:34,0.9,1,1,16,1.3,1
2017/3/7 1:35,0.9,1,0.9,16,1,2
2017/3/7 1:36,0.8,1,0.8,16,0.6,2
2017/3/7 1:37,0.7,1,0.8,1,0.1,4
2017/3/7 1:38,0.7,1,0.7,1,0,4
2017/3/7 1:39,0.6,1,0.6,1,0.1,14
2017/3/7 1:40,0.5,1,0.6,1,0.5,14
2017/3/7 1:41,0.5,16,0.5,1,1.1,11
2017/3/7 1:42,0.4,16,0.5,1,1.3,9
2017/3/7 1:43,0.4,1,0.4,1,0.8,6
2017/3/7 1:44,0.3,8,0.4,1,1.3,8
2017/3/7 1:45,0.3,8,0.3,1,0.8,8
2017/3/7 1:46,0.3,8,0.3,1,0.4,4
2017/3/7 1:47,0.3,8,0.3,1,0.3,6
2017/3/7 1:48,0.3,9,0.3,1,0.9,12
2017/3/7 1:49,0.4,9,0.4,1,1.3,13
2017/3/7 1:50,0.5,9,0.5,16,1.1,13
2017/3/7 1:51,0.5,10,0.5,16,1.5,13
2017/3/7 1:52,0.6,11,0.6,10,1.9,12
2017/3/7 1:53,0.7,11,0.7,11,2,12
2017/3/7 1:54,0.8,12,0.8,11,2.1,10
2017/3/7 1:55,0.9,12,0.9,12,1.4,10
2017/3/7 1:56,1,12,1,12,1.4,10
2017/3/7 1:57,1.1,12,1.1,12,1.1,12
2017/3/7 1:58,1.1,12,1.1,12,0.9,15
2017/3/7 1:59,1.1,12,1.1,12,1.3,14
2017/3/7 2:00,1.1,12,1.1,12,1.9,13
2017/3/7 2:01,1.2,12,1.2,12,2.4,13
2017/3/7 2:02,1.2,12,1.2,12,2.7,12
2017/3/7 2:03,1.3,12,1.3,12,2.6,12
2017/3/7 2:04,1.3,12,1.3,12,2.2,11
2017/3/7 2:05,1.4,12,1.4,12,2.4,12
2017/3/7 2:06,1.4,12,1.4,12,2,11
2017/3/7 2:07,1.4,12,1.4,12,1.4,12
2017/3/7 2:08,1.5,12,1.5,12,1.3,12
2017/3/7 2:09,1.5,12,1.5,12,1.1,12
2017/3/7 2:10,1.4,12,1.5,12,0.6,12
2017/3/7 2:11,1.3,12,1.4,12,0.6,14
2017/3/7 2:12,1,12,1.2,12,0.3,11
2017/3/7 2:13,0.9,12,1,12,0.4,2
2017/3/7 2:14,0.7,13,0.8,12,1,2
2017/3/7 2:15,0.6,13,0.7,12,0.6,1
2017/3/7 2:16,0.5,14,0.5,12,0.6,2
2017/3/7 2:17,0.4,15,0.5,12,0.8,3
2017/3/7 2:18,0.4,16,0.4,12,1,3
2017/3/7 2:19,0.4,1,0.4,12,0.9,4
2017/3/7 2:20,0.4,2,0.4,12,1,4
2017/3/7 2:21,0.5,3,0.5,12,0.8,4
2017/3/7 2:22,0.5,3,0.5,12,0.5,4
2017/3/7 2:23,0.5,4,0.5,12,0.3,4
2017/3/7 2:24,0.4,4,0.5,13,0.3,5
2017/3/7 2:25,0.4,4,0.4,13,0,4
2017/3/7 2:26,0.4,4,0.4,14,0,4
2017/3/7 2:27,0.3,4,0.4,3,0.1,10
2017/3/7 2:28,0.2,4,0.3,3,0.1,9
2017/3/7 2:29,0.1,5,0.2,3,0,8
2017/3/7 2:30,0.1,5,0.1,3,0,7
2017/3/7 2:31,0,5,0.1,3,0,14
2017/3/7 2:32,0,6,0,3,0.1,10
2017/3/7 2:33,0,7,0,4,0.3,16
2017/3/7 2:34,0,11,0,4,0.3,14
2017/3/7 2:35,0,13,0,4,0.3,15
2017/3/7 2:36,0.1,13,0.1,4,0.6,1
2017/3/7 2:37,0.1,14,0.1,4,0.6,15
2017/3/7 2:38,0.1,15,0.1,5,0.4,16
2017/3/7 2:39,0.1,15,0.1,5,0.3,16
2017/3/7 2:40,0.2,16,0.2,15,0.5,1
2017/3/7 2:41,0.2,16,0.2,15,0.5,4
2017/3/7 2:42,0.2,1,0.2,15,0.5,4
2017/3/7 2:43,0.2,1,0.2,15,0.5,4
2017/3/7 2:44,0.2,2,0.2,15,0.3,3
2017/3/7 2:45,0.2,2,0.2,15,0.6,3
2017/3/7 2:46,0.2,2,0.2,15,0.6,3
2017/3/7 2:47,0.3,2,0.3,2,0.8,3
2017/3/7 2:48,0.3,3,0.3,2,0.6,3
2017/3/7 2:49,0.3,3,0.3,2,0.5,6
2017/3/7 2:50,0.3,4,0.3,2,0.8,6
2017/3/7 2:51,0.4,4,0.4,4,0.6,5
2017/3/7 2:52,0.3,4,0.4,4,0.4,5
2017/3/7 2:53,0.3,4,0.3,4,1.1,16
2017/3/7 2:54,0.4,4,0.4,4,1.4,16
2017/3/7 2:55,0.5,4,0.5,4,1.5,1
2017/3/7 2:56,0.5,3,0.5,4,0.9,2
2017/3/7 2:57,0.5,3,0.5,4,1.1,3
2017/3/7 2:58,0.5,3,0.5,4,0.8,3
2017/3/7 2:59,0.5,3,0.5,4,0.9,3
2017/3/7 3:00,0.5,3,0.5,4,0.8,3
2017/3/7 3:01,0.6,2,0.6,2,0.9,4
2017/3/7 3:02,0.6,2,0.6,2,0.6,2
2017/3/7 3:03,0.6,3,0.6,2,0.8,6
2017/3/7 3:04,0.5,3,0.6,2,0.6,6
2017/3/7 3:05,0.4,4,0.5,2,0.6,12
2017/3/7 3:06,0.4,4,0.4,2,0.3,14
2017/3/7 3:07,0.3,4,0.4,2,0.5,13
2017/3/7 3:08,0.3,4,0.4,2,0.6,13
2017/3/7 3:09,0.3,6,0.3,2,0,13
2017/3/7 3:10,0.2,10,0.3,2,0.3,14
2017/3/7 3:11,0.2,12,0.2,2,0.9,16
2017/3/7 3:12,0.2,14,0.2,2,0.9,16
2017/3/7 3:13,0.1,15,0.2,3,0.5,4
2017/3/7 3:14,0.2,15,0.2,4,0.6,3
2017/3/7 3:15,0.2,16,0.2,4,0.9,1
2017/3/7 3:16,0.2,16,0.2,4,1.1,1
2017/3/7 3:17,0.3,16,0.3,4,1.3,15
2017/3/7 3:18,0.3,16,0.3,4,1.3,15
2017/3/7 3:19,0.3,16,0.3,6,0.5,14
2017/3/7 3:20,0.4,16,0.4,16,1,8
2017/3/7 3:21,0.4,1,0.4,16,1.5,8
2017/3/7 3:22,0.5,1,0.5,1,1.4,8
2017/3/7 3:23,0.5,15,0.5,1,0.6,13
2017/3/7 3:24,0.5,14,0.5,1,0.6,11
2017/3/7 3:25,0.5,14,0.5,1,1,1
2017/3/7 3:26,0.6,14,0.6,14,2.1,16
2017/3/7 3:27,0.6,14,0.6,14,1.5,16
2017/3/7 3:28,0.5,14,0.6,14,0.6,2
2017/3/7 3:29,0.5,15,0.5,14,0.3,16
2017/3/7 3:30,0.5,15,0.5,14,0.1,4
2017/3/7 3:31,0.4,16,0.5,14,0.5,2
2017/3/7 3:32,0.4,16,0.4,14,0.5,2
2017/3/7 3:33,0.4,16,0.4,14,0.5,1
2017/3/7 3:34,0.4,16,0.4,14,0.8,14
2017/3/7 3:35,0.3,16,0.4,14,0.3,13
2017/3/7 3:36,0.2,16,0.3,14,0.1,14
2017/3/7 3:37,0.2,15,0.2,14,0.9,9
2017/3/7 3:38,0.1,15,0.2,14,0.3,6
2017/3/7 3:39,0.1,14,0.1,15,0.1,15
2017/3/7 3:40,0.1,14,0.1,15,0.4,16
2017/3/7 3:41,0.2,14,0.2,16,0.8,16
2017/3/7 3:42,0.2,14,0.2,16,0.5,3
2017/3/7 3:43,0.2,15,0.2,16,0.6,5
2017/3/7 3:44,0.2,15,0.2,16,0.9,9
2017/3/7 3:45,0.2,10,0.2,16,0.9,8
2017/3/7 3:46,0.3,7,0.3,7,0.8,8
2017/3/7 3:47,0.3,6,0.3,7,0.9,8
2017/3/7 3:48,0.3,8,0.3,7,0,8
2017/3/7 3:49,0.3,6,0.3,7,0.5,3
2017/3/7 3:50,0.4,6,0.4,6,1.3,1
2017/3/7 3:51,0.4,6,0.4,6,1.3,1
2017/3/7 3:52,0.5,6,0.5,6,1,3
2017/3/7 3:53,0.5,6,0.5,6,0.8,4
2017/3/7 3:54,0.4,4,0.5,6,0.5,15
2017/3/7 3:55,0.4,3,0.4,6,0.6,15
2017/3/7 3:56,0.4,2,0.4,6,0.6,15
2017/3/7 3:57,0.4,1,0.4,6,0.9,16
2017/3/7 3:58,0.5,1,0.5,6,1.3,16
2017/3/7 3:59,0.5,1,0.5,6,0.8,16
2017/3/7 4:00,0.4,16,0.5,6,0.1,10
2017/3/7 4:01,0.4,16,0.4,6,1,10
2017/3/7 4:02,0.4,15,0.4,6,1.3,10
2017/3/7 4:03,0.3,14,0.3,6,0.4,9
2017/3/7 4:04,0.3,14,0.3,1,0.9,1
2017/3/7 4:05,0.3,14,0.3,1,1,1
2017/3/7 4:06,0.3,14,0.3,1,1,1
2017/3/7 4:07,0.4,14,0.4,1,1.8,16
2017/3/7 4:08,0.4,14,0.4,1,1.3,1
2017/3/7 4:09,0.4,14,0.4,1,0.8,15
2017/3/7 4:10,0.5,14,0.5,14,1,14
2017/3/7 4:11,0.5,15,0.5,14,0.8,16
2017/3/7 4:12,0.4,15,0.5,14,0.5,16
2017/3/7 4:13,0.4,15,0.4,14,0.3,16
2017/3/7 4:14,0.4,15,0.4,14,0.1,15
2017/3/7 4:15,0.4,15,0.4,14,0.3,3
2017/3/7 4:16,0.4,16,0.4,14,0.1,4
2017/3/7 4:17,0.3,16,0.4,14,0.9,3
2017/3/7 4:18,0.3,16,0.3,14,0.5,3
2017/3/7 4:19,0.2,1,0.3,14,0.1,3
2017/3/7 4:20,0.2,1,0.2,14,0.8,16
2017/3/7 4:21,0.2,1,0.2,15,1.3,16
2017/3/7 4:22,0.3,2,0.3,15,1.5,16
2017/3/7 4:23,0.3,2,0.3,15,1,1
2017/3/7 4:24,0.4,2,0.4,15,0.5,2
2017/3/7 4:25,0.4,2,0.4,15,0.6,3
2017/3/7 4:26,0.4,2,0.4,16,0.6,4
2017/3/7 4:27,0.4,2,0.4,2,0.6,4
2017/3/7 4:28,0.4,2,0.4,2,0.1,5
2017/3/7 4:29,0.5,2,0.5,2,0.8,4
2017/3/7 4:30,0.4,3,0.5,2,0.5,3
2017/3/7 4:31,0.4,3,0.4,2,0.5,2
2017/3/7 4:32,0.4,3,0.4,2,0.9,3
2017/3/7 4:33,0.3,3,0.4,2,0.6,4
2017/3/7 4:34,0.3,3,0.3,2,0.1,4
2017/3/7 4:35,0.3,3,0.3,2,0.3,16
2017/3/7 4:36,0.3,3,0.3,2,0.6,1
2017/3/7 4:37,0.3,3,0.3,2,0.6,2
2017/3/7 4:38,0.3,2,0.3,2,0.5,1
2017/3/7 4:39,0.2,2,0.3,2,0,4
2017/3/7 4:40,0.2,3,0.2,3,0,4
2017/3/7 4:41,0.2,3,0.2,3,0.1,4
2017/3/7 4:42,0.1,3,0.2,3,0.3,13
2017/3/7 4:43,0.1,2,0.1,3,0.5,13
2017/3/7 4:44,0.1,2,0.1,3,0.4,13
2017/3/7 4:45,0.1,1,0.1,3,0.1,13
2017/3/7 4:46,0.1,1,0.1,3,0.6,14
2017/3/7 4:47,0.1,16,0.1,2,0.6,14
2017/3/7 4:48,0.1,14,0.1,2,0.5,13
2017/3/7 4:49,0.2,14,0.2,2,0.4,13
2017/3/7 4:50,0.2,14,0.2,3,0.5,15
2017/3/7 4:51,0.2,14,0.2,3,0.1,14
2017/3/7 4:52,0.2,14,0.2,14,0.5,1
2017/3/7 4:53,0.2,14,0.2,14,0.8,16
2017/3/7 4:54,0.3,14,0.3,14,1,16
2017/3/7 4:55,0.3,15,0.3,14,1.3,16
2017/3/7 4:56,0.3,15,0.3,14,1.3,16
2017/3/7 4:57,0.4,15,0.4,15,1.5,15
2017/3/7 4:58,0.4,15,0.4,15,1.3,14
2017/3/7 4:59,0.5,15,0.5,15,1.4,16
2017/3/7 5:00,0.6,16,0.6,15,1.6,16
2017/3/7 5:01,0.7,16,0.7,16,1.3,16
2017/3/7 5:02,0.7,16,0.7,16,0.8,1
2017/3/7 5:03,0.7,16,0.7,16,0.9,15
2017/3/7 5:04,0.7,16,0.7,16,0.6,15
2017/3/7 5:05,0.6,15,0.7,16,0.4,15
2017/3/7 5:06,0.6,15,0.6,16,0.8,16
2017/3/7 5:07,0.6,15,0.6,16,1.1,15
2017/3/7 5:08,0.7,16,0.7,16,1.3,16
2017/3/7 5:09,0.7,16,0.7,16,1.4,16
2017/3/7 5:10,0.6,16,0.7,16,1.6,1
2017/3/7 5:11,0.6,16,0.6,16,1.3,16
2017/3/7 5:12,0.6,15,0.6,16,0.8,16
2017/3/7 5:13,0.5,15,0.6,16,0.1,15
2017/3/7 5:14,0.5,15,0.5,16,0.6,13
2017/3/7 5:15,0.5,15,0.6,16,0.5,14
2017/3/7 5:16,0.6,15,0.6,16,2,15
2017/3/7 5:17,0.6,15,0.6,16,2.5,16
2017/3/7 5:18,0.7,15,0.7,16,3,2
2017/3/7 5:19,0.8,15,0.8,15,3.5,15
2017/3/7 5:20,1,15,1,15,3.8,16
2017/3/7 5:21,1.1,15,1.1,15,2.9,16
2017/3/7 5:22,1.2,15,1.2,15,2.5,1
2017/3/7 5:23,1.4,15,1.4,15,6.3,12
2017/3/7 5:24,1.9,15,1.9,15,6.9,15
2017/3/7 5:25,2.2,15,2.2,15,6.2,14
2017/3/7 5:26,2.5,15,2.5,15,5.7,15
2017/3/7 5:27,2.7,15,2.7,15,6.3,16
2017/3/7 5:28,2.8,14,2.8,14,6.4,11
2017/3/7 5:29,2.9,14,2.9,14,5.8,16
2017/3/7 5:30,3,14,3,14,6.3,16
2017/3/7 5:31,3.1,14,3.1,14,6.2,14
2017/3/7 5:32,3.2,14,3.2,14,4.2,11
2017/3/7 5:33,3.2,14,3.3,14,4.7,12
2017/3/7 5:34,3,14,3.2,14,3.9,14
2017/3/7 5:35,3,14,3,14,5.1,15
2017/3/7 5:36,2.9,14,3,14,5.6,12
2017/3/7 5:37,2.9,14,2.9,14,5.5,13
2017/3/7 5:38,2.9,14,2.9,14,4.4,13
2017/3/7 5:39,3.1,14,3.1,14,6.5,12
2017/3/7 5:40,3,14,3.1,14,4.5,16
2017/3/7 5:41,3.1,14,3.1,14,5.6,15
2017/3/7 5:42,3.4,13,3.4,13,8.6,12
2017/3/7 5:43,3.7,13,3.7,13,8.4,13
2017/3/7 5:44,3.8,13,3.8,14,6.3,15
2017/3/7 5:45,4,13,4,13,6.3,14
2017/3/7 5:46,3.9,13,4,13,3.6,14
2017/3/7 5:47,3.8,13,3.9,13,5.2,9
2017/3/7 5:48,3.9,14,3.9,13,6.9,12
2017/3/7 5:49,3.9,13,3.9,13,6.1,14
2017/3/7 5:50,4.2,13,4.2,13,7.8,13
2017/3/7 5:51,4.2,13,4.2,13,6.8,16
2017/3/7 5:52,3.8,14,4.1,13,3.1,13
2017/3/7 5:53,3.4,14,3.7,13,4.1,11
2017/3/7 5:54,3.4,13,3.4,13,7,12
2017/3/7 5:55,3.3,13,3.4,13,5.6,13
2017/3/7 5:56,3.5,14,3.5,13,5.5,14
2017/3/7 5:57,3.5,14,3.5,13,4.2,15
2017/3/7 5:58,3.2,14,3.5,13,4.2,14
2017/3/7 5:59,3,14,3.2,13,3.7,15
2017/3/7 6:00,2.7,14,2.9,13,7.5,13
2017/3/7 6:01,3,13,3,13,8.3,12
2017/3/7 6:02,3.4,13,3.4,14,7.8,12
2017/3/7 6:03,3.5,13,3.5,13,7.6,12
2017/3/7 6:04,3.3,13,3.4,13,4.7,14
2017/3/7 6:05,3.1,13,3.2,13,5.1,12
2017/3/7 6:06,3,13,3.1,13,5,1
2017/3/7 6:07,3.3,13,3.3,14,8.4,12
2017/3/7 6:08,3.5,13,3.5,13,6.9,13
2017/3/7 6:09,3.9,13,3.9,13,10.5,13
2017/3/7 6:10,3.9,13,4,13,5.1,13
2017/3/7 6:11,3.8,13,3.9,13,9,11
2017/3/7 6:12,3.6,13,3.8,13,6.3,12
2017/3/7 6:13,4,13,4,13,8.3,12
2017/3/7 6:14,4,13,4.1,13,4.8,14
2017/3/7 6:15,4.4,13,4.4,13,8.7,13
2017/3/7 6:16,4.7,13,4.7,13,9,12
2017/3/7 6:17,4.4,13,4.7,13,4.4,16
2017/3/7 6:18,4.3,13,4.3,13,6.4,13
2017/3/7 6:19,4.2,13,4.3,13,8.1,14
2017/3/7 6:20,4.1,14,4.2,13,4.7,14
2017/3/7 6:21,4,14,4.2,13,5.8,15
2017/3/7 6:22,4.3,14,4.3,13,9.4,14
2017/3/7 6:23,4.2,14,4.3,13,9.1,15
2017/3/7 6:24,4.3,14,4.3,13,6.8,14
2017/3/7 6:25,4.1,14,4.3,13,5.5,13
2017/3/7 6:26,4.1,14,4.1,13,8.4,13
2017/3/7 6:27,4.2,14,4.2,13,5.8,12
2017/3/7 6:28,4.1,14,4.3,13,2.9,13
2017/3/7 6:29,3.9,14,4.1,14,4.7,13
2017/3/7 6:30,4.1,13,4.1,14,7.5,14
2017/3/7 6:31,4.3,13,4.3,14,6.2,13
2017/3/7 6:32,3.9,13,4.3,14,5.7,11
2017/3/7 6:33,3.5,12,3.8,14,3.5,13
2017/3/7 6:34,3.3,12,3.5,14,3.7,13
2017/3/7 6:35,3.2,12,3.3,14,6.8,11
2017/3/7 6:36,3.2,12,3.3,14,8.3,12
2017/3/7 6:37,3.2,12,3.2,14,6.2,13
2017/3/7 6:38,3.2,12,3.2,13,3.5,14
2017/3/7 6:39,3,12,3.2,13,2.7,13
2017/3/7 6:40,2.7,13,3,13,3.7,16
2017/3/7 6:41,2.3,13,2.7,13,2.9,13
2017/3/7 6:42,2.5,13,2.5,13,6.7,13
2017/3/7 6:43,2.6,13,2.7,12,3.9,14
2017/3/7 6:44,2.7,13,2.7,12,4.3,11
2017/3/7 6:45,2.8,13,2.8,12,5.7,13
2017/3/7 6:46,2.6,13,2.8,12,5.1,13
2017/3/7 6:47,2.5,13,2.5,12,5.6,13
2017/3/7 6:48,2.6,13,2.6,12,4.9,14
2017/3/7 6:49,2.9,13,2.9,12,6.8,12
2017/3/7 6:50,3,13,3,13,7.4,13
2017/3/7 6:51,3.1,13,3.1,13,4.5,13
2017/3/7 6:52,3,13,3.1,13,4.1,13
2017/3/7 6:53,3.2,13,3.2,13,6.7,15
2017/3/7 6:54,3.2,13,3.3,13,5.4,14
2017/3/7 6:55,3.1,13,3.2,13,3.7,13
2017/3/7 6:56,3.1,13,3.1,13,6.9,13
2017/3/7 6:57,3.2,13,3.2,13,8.6,13
2017/3/7 6:58,3.3,13,3.3,13,7.1,13
2017/3/7 6:59,3.2,13,3.4,13,5.4,14
2017/3/7 7:00,3.1,13,3.2,13,4.2,9
2017/3/7 7:01,3.3,13,3.3,13,7.6,12
2017/3/7 7:02,3.6,13,3.6,13,8.4,14
2017/3/7 7:03,3.5,13,3.6,13,5.7,14
2017/3/7 7:04,3.5,13,3.5,13,4.9,10
2017/3/7 7:05,3.5,13,3.5,13,6.1,12
2017/3/7 7:06,3.6,13,3.6,13,5.2,13
2017/3/7 7:07,3.6,13,3.6,13,7.1,14
2017/3/7 7:08,3.4,13,3.6,13,4.5,13
2017/3/7 7:09,3.4,13,3.4,13,6.4,10
2017/3/7 7:10,3.5,13,3.5,13,5.7,10
2017/3/7 7:11,3.5,13,3.6,13,8.1,11
2017/3/7 7:12,3.6,13,3.7,13,11.6,13
2017/3/7 7:13,3.7,12,3.7,13,7.8,13
2017/3/7 7:14,3.6,12,3.7,13,5.7,11
2017/3/7 7:15,3.6,12,3.6,13,4.2,11
2017/3/7 7:16,3.6,12,3.6,13,6,10
2017/3/7 7:17,3.5,12,3.6,13,8.3,11
2017/3/7 7:18,3.5,12,3.5,13,5.7,15
2017/3/7 7:19,3.4,12,3.5,13,3.3,8
2017/3/7 7:20,3.4,12,3.4,13,6.4,10
2017/3/7 7:21,3.3,12,3.4,13,7,10
2017/3/7 7:22,2.9,12,3.3,13,6.3,10
2017/3/7 7:23,3,12,3,12,8.4,10
2017/3/7 7:24,3.4,12,3.4,12,9.9,12
2017/3/7 7:25,3.4,12,3.4,12,5.7,10
2017/3/7 7:26,3.5,12,3.5,12,8.3,13
2017/3/7 7:27,3.5,12,3.5,12,7.5,10
2017/3/7 7:28,3.6,12,3.6,12,8.2,12
2017/3/7 7:29,3.9,12,3.9,12,9.4,12
2017/3/7 7:30,3.9,12,3.9,12,6,11
2017/3/7 7:31,3.9,12,3.9,12,6.9,10
2017/3/7 7:32,4.1,12,4.1,12,5.6,12
2017/3/7 7:33,3.9,12,4.1,12,7.1,10
2017/3/7 7:34,3.8,12,3.9,12,9.1,12
2017/3/7 7:35,3.7,12,3.8,12,2.6,10
2017/3/7 7:36,3.5,11,3.7,12,4.1,10
2017/3/7 7:37,3.3,11,3.5,12,4.3,11
2017/3/7 7:38,3.3,12,3.4,12,5.4,11
2017/3/7 7:39,3,12,3.3,12,4.3,16
2017/3/7 7:40,2.8,12,3,12,2.1,8
2017/3/7 7:41,2.6,12,2.8,12,2,10
2017/3/7 7:42,2.4,12,2.5,12,3.8,10
2017/3/7 7:43,2.4,11,2.4,12,6.3,10
2017/3/7 7:44,2.1,11,2.3,12,3.7,9
2017/3/7 7:45,2.2,11,2.2,12,5.8,11
2017/3/7 7:46,2.2,12,2.2,11,6.5,11
2017/3/7 7:47,2.3,12,2.4,11,6.2,10
2017/3/7 7:48,2.4,11,2.4,12,9.1,10
2017/3/7 7:49,2.6,11,2.6,12,6.9,9
2017/3/7 7:50,2.9,11,2.9,11,6,11
2017/3/7 7:51,3.2,11,3.2,11,7.4,13
2017/3/7 7:52,3.3,12,3.3,11,6.1,15
2017/3/7 7:53,3.1,12,3.3,11,2.7,12
2017/3/7 7:54,3.2,12,3.2,11,4.4,13
2017/3/7 7:55,3.1,12,3.2,11,4.2,11
2017/3/7 7:56,3.1,12,3.2,11,4.1,13
2017/3/7 7:57,2.9,12,3.1,11,3,13
2017/3/7 7:58,2.9,12,2.9,11,7.8,10
2017/3/7 7:59,2.9,12,3,11,6.9,10
2017/3/7 8:00,2.8,12,2.9,11,4.7,12
2017/3/7 8:01,2.5,12,2.8,11,3.1,9
2017/3/7 8:02,2.4,11,2.5,12,4.7,12
2017/3/7 8:03,2.5,11,2.5,12,3.5,11
2017/3/7 8:04,2.6,11,2.6,12,7.8,8
2017/3/7 8:05,2.9,11,2.9,12,8.3,11
2017/3/7 8:06,2.8,11,2.9,12,3.3,12
2017/3/7 8:07,2.7,11,2.8,12,2.2,10
2017/3/7 8:08,2.4,11,2.7,12,1.9,10
2017/3/7 8:09,2,11,2.3,12,2.4,10
2017/3/7 8:10,2,11,2,11,3.7,11
2017/3/7 8:11,2.2,11,2.2,11,5.4,11
2017/3/7 8:12,2.2,11,2.2,11,4.5,10
2017/3/7 8:13,2.3,11,2.3,11,5.4,10
2017/3/7 8:14,2.1,11,2.3,11,4.9,9
2017/3/7 8:15,2,10,2.1,11,5.2,9
2017/3/7 8:16,2.1,10,2.1,11,5.1,10
2017/3/7 8:17,2.4,10,2.4,11,6.2,11
2017/3/7 8:18,2.8,11,2.8,11,6.3,11
2017/3/7 8:19,3,11,3,11,5.4,11
2017/3/7 8:20,2.9,10,3,11,2.9,10
2017/3/7 8:21,2.6,10,2.9,11,2.7,12
2017/3/7 8:22,2.7,10,2.7,11,6.9,10
2017/3/7 8:23,2.9,10,2.9,11,6.3,11
2017/3/7 8:24,3,10,3,11,4.7,10
2017/3/7 8:25,2.7,10,2.9,11,2.5,16
2017/3/7 8:26,2.5,10,2.7,11,3.5,1
2017/3/7 8:27,2.2,10,2.5,11,3,6
2017/3/7 8:28,1.9,10,2.2,11,1.5,4
2017/3/7 8:29,1.8,9,1.8,11,3.9,8
2017/3/7 8:30,1.8,8,1.8,10,2.4,5
2017/3/7 8:31,1.8,7,1.9,10,3,7
2017/3/7 8:32,1.6,5,1.8,10,2.1,2
2017/3/7 8:33,1.3,4,1.6,10,2.1,1
2017/3/7 8:34,1.2,3,1.3,10,3,2
2017/3/7 8:35,1.3,4,1.3,10,3.3,4
2017/3/7 8:36,1.4,3,1.4,11,2.5,13
2017/3/7 8:37,1.5,3,1.5,10,3.8,15
2017/3/7 8:38,1.6,2,1.6,8,3.1,15
2017/3/7 8:39,1.5,1,1.6,8,1.3,15
2017/3/7 8:40,1.4,1,1.5,8,1.6,8
2017/3/7 8:41,1.4,1,1.4,7,1.5,8
2017/3/7 8:42,1.4,2,1.4,5,2,4
2017/3/7 8:43,1.4,2,1.4,3,1.9,5
2017/3/7 8:44,1.3,2,1.4,3,3.2,16
2017/3/7 8:45,1.4,1,1.4,3,6.7,9
2017/3/7 8:46,1.5,2,1.5,3,5.1,9
2017/3/7 8:47,1.4,3,1.5,3,3.3,10
2017/3/7 8:48,1.3,6,1.4,2,2,9
2017/3/7 8:49,1.5,7,1.5,1,5.4,12
2017/3/7 8:50,1.7,8,1.7,8,5.1,9
2017/3/7 8:51,2.1,10,2.1,10,8.7,10
2017/3/7 8:52,2.3,10,2.3,10,6.9,10
2017/3/7 8:53,2.6,10,2.6,10,8.4,12
2017/3/7 8:54,2.8,10,2.8,10,5.6,10
2017/3/7 8:55,2.9,10,2.9,10,7.9,12
2017/3/7 8:56,3,11,3.1,11,7.4,12
2017/3/7 8:57,3,11,3,11,2.4,15
2017/3/7 8:58,3.2,12,3.2,12,6.4,14
2017/3/7 8:59,3.3,12,3.4,12,6.3,14
2017/3/7 9:00,3.3,12,3.3,12,5.5,12
2017/3/7 9:01,3,12,3.3,12,4.1,12
2017/3/7 9:02,2.7,12,3,12,4.3,14
2017/3/7 9:03,2.7,12,2.7,12,5.7,12
2017/3/7 9:04,2.7,12,2.7,12,4.5,12
2017/3/7 9:05,2.7,12,2.8,12,4.1,13
2017/3/7 9:06,2.5,12,2.7,12,4.3,13
2017/3/7 9:07,2.5,12,2.6,12,4.4,13
2017/3/7 9:08,2.3,12,2.5,12,1.3,13
2017/3/7 9:09,2.1,12,2.2,12,2,13
2017/3/7 9:10,2,12,2.1,12,3.9,13
2017/3/7 9:11,1.8,12,2,12,2.2,9
2017/3/7 9:12,1.8,12,1.8,12,2.1,7
2017/3/7 9:13,1.6,12,1.9,12,2.6,9
2017/3/7 9:14,1.4,12,1.5,12,2.9,10
2017/3/7 9:15,1.2,11,1.4,12,1.4,11
2017/3/7 9:16,1.2,11,1.2,12,3.6,9
2017/3/7 9:17,1.1,11,1.1,12,2,9
2017/3/7 9:18,1.2,11,1.2,12,4.4,10
2017/3/7 9:19,1.4,11,1.4,12,3.5,10
2017/3/7 9:20,1.3,11,1.4,12,2.6,10
2017/3/7 9:21,1.3,11,1.4,12,2.7,10
2017/3/7 9:22,1.4,11,1.4,12,4.1,10
2017/3/7 9:23,1.6,11,1.6,11,5.1,11
2017/3/7 9:24,1.6,10,1.7,11,3.8,9
2017/3/7 9:25,1.7,11,1.7,11,3.7,9
2017/3/7 9:26,1.9,11,1.9,11,4.5,10
2017/3/7 9:27,2.1,10,2.1,11,5.2,10
2017/3/7 9:28,2.3,10,2.3,10,5.7,10
2017/3/7 9:29,2.4,10,2.4,10,5.7,9
2017/3/7 9:30,2.6,10,2.6,10,5.8,8
2017/3/7 9:31,2.6,10,2.6,10,3.9,10
2017/3/7 9:32,2.7,10,2.7,10,6.1,10
2017/3/7 9:33,2.7,10,2.7,10,5.8,10
2017/3/7 9:34,2.8,10,2.8,10,5.2,9
2017/3/7 9:35,2.8,10,2.8,10,4.3,10
2017/3/7 9:36,2.9,10,2.9,10,8.3,9
2017/3/7 9:37,2.9,10,3,10,8.4,10
2017/3/7 9:38,2.9,10,2.9,10,6.1,9
2017/3/7 9:39,2.8,10,2.9,10,6.7,10
2017/3/7 9:40,2.8,10,2.8,10,6,10
2017/3/7 9:41,2.8,10,2.8,10,3.9,9
2017/3/7 9:42,2.7,11,2.8,10,4.1,11
2017/3/7 9:43,2.8,11,2.8,10,5.6,10
2017/3/7 9:44,2.6,11,2.7,10,4.2,14
2017/3/7 9:45,2.7,11,2.7,10,4.4,12
2017/3/7 9:46,2.7,11,2.7,10,8.1,12
2017/3/7 9:47,2.8,11,2.8,10,8.6,11
2017/3/7 9:48,2.9,11,2.9,10,6.8,14
2017/3/7 9:49,2.9,12,2.9,11,3.9,14
2017/3/7 9:50,2.7,12,2.9,11,3.7,9
2017/3/7 9:51,2.8,13,2.8,11,5.4,3
2017/3/7 9:52,2.9,13,2.9,11,6.8,10
2017/3/7 9:53,3.2,12,3.2,12,11.7,7
2017/3/7 9:54,3.5,12,3.5,12,9,12
2017/3/7 9:55,3.7,12,3.7,12,8.1,13
2017/3/7 9:56,3.4,12,3.6,12,4.8,8
2017/3/7 9:57,3.2,12,3.4,12,4.7,8
2017/3/7 9:58,3.2,12,3.2,12,8.7,13
2017/3/7 9:59,3.4,12,3.4,12,7.7,11
2017/3/7 10:00,3.8,12,3.8,12,9.2,11
2017/3/7 10:01,3.9,11,4,11,7.5,13
2017/3/7 10:02,4.1,11,4.1,11,8.9,12
2017/3/7 10:03,4.1,12,4.1,11,9.7,11
2017/3/7 10:04,3.9,12,4.1,11,6.3,13
2017/3/7 10:05,3.9,12,3.9,11,7.1,10
2017/3/7 10:06,4.1,12,4.1,11,10.9,12
2017/3/7 10:07,4.7,12,4.7,12,12.5,15
2017/3/7 10:08,4.7,12,4.8,12,9,12
2017/3/7 10:09,4.7,12,4.8,12,8.2,15
2017/3/7 10:10,4.6,12,4.8,12,6.7,12
2017/3/7 10:11,4.6,12,4.6,12,7,11
2017/3/7 10:12,4.6,12,4.7,12,7.2,11
2017/3/7 10:13,4.1,12,4.6,12,3.2,11
2017/3/7 10:14,4,12,4.1,12,4.8,13
2017/3/7 10:15,4,13,4,12,5.7,14
2017/3/7 10:16,3.9,13,4.1,12,4.5,13
2017/3/7 10:17,3.4,13,3.8,12,6.1,14
2017/3/7 10:18,3.1,13,3.3,12,4.1,14
2017/3/7 10:19,3.2,13,3.2,12,8.9,12
2017/3/7 10:20,3.2,13,3.2,12,7.4,16
2017/3/7 10:21,3.1,13,3.2,12,6,13
2017/3/7 10:22,3.1,13,3.1,12,5.2,12
2017/3/7 10:23,3.2,13,3.2,12,5.1,14
2017/3/7 10:24,3.5,13,3.5,13,10.3,11
2017/3/7 10:25,3.4,13,3.6,13,5.7,11
2017/3/7 10:26,3.4,13,3.4,13,3.9,9
2017/3/7 10:27,3.3,13,3.4,13,6.3,13
2017/3/7 10:28,3.4,12,3.4,13,6.9,10
2017/3/7 10:29,3.5,12,3.6,13,11.9,10
2017/3/7 10:30,3.5,12,3.5,13,7.4,12
2017/3/7 10:31,3.5,12,3.5,13,7,11
2017/3/7 10:32,3.4,11,3.5,13,6.3,11
2017/3/7 10:33,3.7,11,3.7,11,9.1,8
2017/3/7 10:34,3.7,11,3.8,11,11.9,13
2017/3/7 10:35,3.9,11,3.9,11,6.1,13
2017/3/7 10:36,3.9,11,3.9,11,5.6,12
2017/3/7 10:37,4,11,4,11,6.5,12
2017/3/7 10:38,4.3,11,4.3,11,13.5,10
2017/3/7 10:39,4.1,11,4.3,11,12.7,9
2017/3/7 10:40,4.4,11,4.4,11,9.3,10
2017/3/7 10:41,4.6,11,4.6,11,8.5,9
2017/3/7 10:42,5,11,5.1,11,12.1,13
2017/3/7 10:43,4.9,11,5,11,9.4,12
2017/3/7 10:44,5,11,5,11,11.4,11
2017/3/7 10:45,5.1,11,5.2,11,11,11
2017/3/7 10:46,5.2,11,5.2,11,5.5,11
2017/3/7 10:47,5.3,11,5.3,11,6.1,13
2017/3/7 10:48,4.7,11,5.3,11,3.3,9
2017/3/7 10:49,4.5,12,4.7,11,4.9,14
2017/3/7 10:50,4.3,12,4.5,11,7.2,11
2017/3/7 10:51,4.2,12,4.3,11,7.6,11
2017/3/7 10:52,3.8,12,4.1,11,8.2,14
2017/3/7 10:53,3.8,12,3.8,11,7.4,15
2017/3/7 10:54,3.4,12,3.8,11,6.7,16
2017/3/7 10:55,3,13,3.3,11,3.1,7
2017/3/7 10:56,3,13,3,11,7.4,11
2017/3/7 10:57,3,12,3,11,7.5,13
2017/3/7 10:58,3.3,12,3.3,11,9.3,13
2017/3/7 10:59,3.7,13,3.7,12,10,16
2017/3/7 11:00,3.6,13,3.7,12,5.8,15
2017/3/7 11:01,3.7,14,3.7,12,9.4,16
2017/3/7 11:02,3.9,13,3.9,13,8.2,11
2017/3/7 11:03,4.1,13,4.1,13,11.9,13
2017/3/7 11:04,4.5,13,4.5,13,13.2,15
2017/3/7 11:05,4.7,13,4.7,13,3.8,13
2017/3/7 11:06,4.7,13,4.7,13,5.8,12
2017/3/7 11:07,4.7,13,4.8,13,7.5,12
2017/3/7 11:08,4.6,13,4.7,13,5.5,12
2017/3/7 11:09,4.4,13,4.6,13,7.4,9
2017/3/7 11:10,4.6,12,4.6,13,9.8,11
2017/3/7 11:11,4.5,12,4.5,13,6.5,12
2017/3/7 11:12,4.3,12,4.6,13,6.3,10
2017/3/7 11:13,4,12,4.2,13,5.8,14
2017/3/7 11:14,3.7,12,4,13,7,15
2017/3/7 11:15,3.8,12,3.8,13,4.5,15
2017/3/7 11:16,3.6,13,3.8,13,2.7,1
2017/3/7 11:17,3.5,14,3.6,13,5.5,1
2017/3/7 11:18,3.3,15,3.4,13,3.5,15
2017/3/7 11:19,3.3,15,3.3,12,4.4,16
2017/3/7 11:20,2.9,15,3.3,12,3,1
2017/3/7 11:21,2.8,15,2.9,12,5.8,12
2017/3/7 11:22,2.9,15,2.9,12,6,13
2017/3/7 11:23,2.8,15,2.9,12,8.4,12
2017/3/7 11:24,2.8,14,2.8,12,10.1,12
2017/3/7 11:25,3,14,3,13,7.1,12